Hourly Weather Roundup
Issued by NWS Central Illinois

Home | Current Version | Previous Version | Text Only | Print | Product List | Glossary On
Versions: 1 2 3 4 5 6 7 8 9 10 11 12 13 14 15 16 17 18 19 20 21 22 23 24 25 26 27 28 29 30 31 32 33 34 35 36 37 38 39 40 41 42 43 44 45 46 47 48 49 50
000
NZUS43 KILX 272310
HWRILX

AREA WEATHER ROUNDUP
NATIONAL WEATHER SERVICE, LINCOLN IL
500 PM CST THU NOV 27 2014


CITY           SKY/WX    TMP DP  RH WIND       PRES   REMARKS
BLOOMINGTON    CLOUDY    22  15  74 W10       30.42R WCI  11
CHAMPAIGN      CLOUDY    23  19  85 W12       30.42R WCI  12
DECATUR        CLOUDY    22  15  75 W12       30.45R WCI  10
FLORA          MOCLDY    27  20  75 NW7       30.47R WCI  19
GALESBURG      CLEAR     11   6  81 W7        30.45S WCI   0
JACKSONVILLE   CLEAR     21  13  72 N8        30.47F WCI  12
LACON          CLEAR     19   8  62 W5        30.44S WCI  12
LAWRENCEVILLE  CLOUDY    29  21  72 W12       30.45S WCI  19
LITCHFIELD     PTCLDY    21  16  79 NW7       30.46S WCI  13
$$


CITY           SKY/WX    TMP DP  RH WIND       PRES   REMARKS
LINCOLN        CLEAR     21  13  71 W7        30.48R WCI  13
MACOMB         CLEAR     14   5  67 NW9       30.50R WCI   2
MATTOON        MOCLDY    22  16  78 NW14      30.44R WCI   9
MT CARMEL AP   CLOUDY    32  23  69 W10       30.45S WCI  24
OLNEY-NOBLE AP CLOUDY    28  21  74 NW9       30.47R WCI  20
PARIS          LGT SNOW  27  23  87 W14       30.42R WCI  15
PEORIA         CLEAR     20   9  62 W7        30.46R WCI  11
PONTIAC        FLURRIES  24  18  80 W10       30.43R WCI  13
RANTOUL        FLURRIES  26  20  77 NW9       30.41S WCI  17
ROBINSON       CLOUDY    29  21  71 W12       30.46R WCI  20
SPRINGFIELD    CLEAR     21  12  68 NW8       30.47R WCI  11
TAYLORVILLE    PTCLDY    21  14  73 NW8       30.47R WCI  12
$$

...REGIONAL REPORTS...


CITY           SKY/WX    TMP DP  RH WIND       PRES   REMARKS
CHICAGO O`HARE MOCLDY    22  11  62 NW10      30.38R WCI  11
KANKAKEE       FLURRIES N/A N/A N/A W12       30.40R
MOLINE         CLEAR     17   2  51 NW10      30.45S WCI   5
MOUNT VERNON   PTCLDY    28  19  69 CALM      30.46S
PITTSFIELD     CLEAR     23  16  76 NW5       30.48S WCI  16
QUINCY         CLEAR     19  12  74 NW6       30.46F WCI  11
ROCKFORD       PTCLDY    19   9  65 NW7       30.43R WCI  10
$$


CITY           SKY/WX    TMP DP  RH WIND       PRES   REMARKS
BURLINGTON     PTCLDY    13   0  56 NW5       30.47S WCI   5
CEDAR RAPIDS   CLEAR      7   3  84 W7        30.44S WCI  -5
DES MOINES     CLOUDY    14  -1  51 SE8       30.43F WCI   3
KIRKSVILLE     CLOUDY    22  14  71 NE6       30.44F WCI  14
OTTUMWA        MOCLDY    10  -2  58 N5        30.46S WCI   2
ST LOUIS       PTCLDY    30  18  60 N9        30.46S WCI  22
$$


CITY           SKY/WX    TMP DP  RH WIND       PRES   REMARKS
TERRE HAUTE    LGT SNOW  27  23  85 W8        30.42R FOG     WCI  19
EVANSVILLE     CLOUDY    30  22  72 VRB3      30.47S
INDIANAPOLIS   FLURRIES  27  19  72 NW13      30.37R WCI  16
LAFAYETTE      LGT SNOW  25  21  85 NW7       30.39R FOG     WCI  17
MADISON        PTCLDY    14   6  70 NW5       30.40R WCI   6
MILWAUKEE      PTCLDY    19   7  59 W8        30.39R WCI   9
$$




USA.gov is the U.S. government's official web portal to all federal, state and local government web resources and services.